Pagrindinis puslapis
METAR-TAF:

METAR-TAF

Oro uostai :

Aghajari, Iranas

platuma: 30-46N, ilguma: 049-40E, Aukštis: 29 m

Dabartinis oras

Ataskaita buvo paskelbta 2 valandos ir 8 minutes, ne 17:00 UTC
Vėjas 6 kt iš Vakarų
Temperatūra 26°C
Drėgmė 32%
Slėgis 1007 hPa
Matomumas 10 km arba daugiau
nėra debesų žemiau 1500 m ir nėra kamuolinių lietaus debesų

METAR: OIAG 131700Z 27006KT CAVOK 26/08 Q1007

Laikas: 23:38 (19:08 UTC)


TAF: trūkstamas

Orai ataskaitas ir orų prognozės (METAR, TAF).

turimą stotys yra geltonos ir raudonos taškus žemėlapyje.

Perkelti pele per norėdami pamatyti stoties vardą.

Tada spustelėkite, norėdami matyti oro stebėjimo ir prognozės.

Norėdami pakeisti žemėlapį: spustelėkite ant žalios mygtukų su juodo kryžiaus žemyn,; žalią mygtuką su brūkšneliu, jei norite nutolinti; arba žalių rodyklių gretimoms žemėlapius.


METAR-TAF: